カタログに戻る

KUIPER-00253

運用中通信LEO
NORAD 68584·PAYLOAD·🇺🇸 United States

打ち上げ Apr 4, 2026 から Cape Canaveral Space Force Station

Loading…

次のパス (今後24時間)

TLE

最新Source: CelesTrak SupGP

元期: Sep 14, 2026, 14:36 UTC

1 68584C 26072M   26257.60846065  .00004633  00000+0  60652-3 0  2579
2 68584  51.9019 147.7670 0001046  91.3553 239.4931 14.79922354    15

AllMySatでKUIPER-00253をリアルタイム追跡

Download on the App Store